[Iaude] MPEC X118: 2023 XV2 [a=1.90,e=0.47,i=2.1,H=26.0]

mpec at marsden.cfa.harvard.edu mpec at marsden.cfa.harvard.edu
Wed Dec 6 17:58:01 EST 2023


M.P.E.C. 2023-X118                             Issued 2023 December 6, 22:56 UT

     The Minor Planet Electronic Circulars contain information on unusual
         minor planets, routine data on comets and natural satellites,
         and occasional editorial announcements.  They are published
    on behalf of Division F of the International Astronomical Union by the
          Minor Planet Center, Smithsonian Astrophysical Observatory,
                          Cambridge, MA 02138, U.S.A.
			  
             Prepared using the Tamkin Foundation Computer Network

                              MPC at CFA.HARVARD.EDU
            URL https://www.minorplanetcenter.net/    ISSN 1523-6714

                                    2023 XV2                                    


Observations:
     K23X02V* C2023 12 05.35358104 57 58.458+12 25 38.92         20.41wXEX118F52
     K23X02V  C2023 12 05.36600604 58 05.753+12 26 02.40         20.54wXEX118F52
     K23X02V  C2023 12 05.37841204 58 13.007+12 26 25.59         20.35wXEX118F52
     K23X02V  C2023 12 05.39085504 58 20.280+12 26 48.63         20.46wXEX118F52
     K23X02V  C2023 12 05.54805804 59 53.095+12 31 26.44         20.18GVEX118F51
     K23X02V  C2023 12 05.54869904 59 53.495+12 31 27.68         20.48GVEX118F51
     K23X02V KC2023 12 06.24670205 07 54.95 +12 52 29.8          19.5 GXEX118858
     K23X02V KC2023 12 06.25359005 07 59.41 +12 52 43.0          19.8 GXEX118858
     K23X02V KC2023 12 06.26054005 08 03.93 +12 52 56.4          19.7 GXEX118858
     K23X02V mC2023 12 06.46653605 10 20.233+12 59 23.24         21.42GVEX118I52
     K23X02V mC2023 12 06.46693805 10 20.543+12 59 22.99         20.34GVEX118I52
     K23X02V mC2023 12 06.46733905 10 20.795+12 59 24.04         19.97GVEX118I52
     K23X02V mC2023 12 06.46774005 10 21.097+12 59 24.54         20.42GVEX118I52
     K23X02V 1B2023 12 06.92024 05 16 03.202+13 16 38.96         20.4 VZEX118M49
     K23X02V 1B2023 12 06.92517 05 16 06.629+13 16 49.15         21.0 VZEX118M49
     K23X02V 1B2023 12 06.93010 05 16 10.042+13 16 59.16         20.2 VZEX118M49

Observer details:
858 Tebbutt Observatory, Edgewood.  Observer F. B. Zoltowski.  0.51-m f/8.1
    Schmidt-Cassegrain + CCD.
F51 Pan-STARRS 1, Haleakala.  Observers J. Herman, T. Lowe, P. Minguez, A.
    Schultz, I. Smith.  Measurers K. Chambers, T. de Boer, J. Fairlamb, H.
    Gao, M. Huber, C.-C. Lin, E. Magnier, Y. Ramanjooloo, R. Wainscoat, R.
    Weryk.  1.8-m Ritchey-Chretien + CCD.
F52 Pan-STARRS 2, Haleakala.  Observers J. Herman, T. Lowe, P. Minguez, A.
    Schultz, I. Smith.  Measurers K. Chambers, T. de Boer, J. Fairlamb, H.
    Gao, M. Huber, C.-C. Lin, E. Magnier, Y. Ramanjooloo, R. Wainscoat, R.
    Weryk.  1.8-m Ritchey-Chretien + CCD.
I52 Steward Observatory, Mt. Lemmon Station.  Observer G. J. Leonard.
    Measurers E. C. Beshore, D. Fay, J. B. Fazekas, D. C. Fuls, A. R. Gibbs,
    A. D. Grauer, H. Groeller, J. K. Hogan, R. A. Kowalski, S. M. Larson, G.
    J. Leonard, D. Rankin, R. L. Seaman, F. C. Shelly, K. W. Wierzchos.  1.0-m
    prime focus + CCD.
M49 IAS Remote Observatory, Hakos.  Observers D. Husar, M. Junius.  Measurer
    M. Junius.  0.25-m f/4.5 reflector + CMO.

Orbital elements:
2023 XV2                                                 Earth MOID = 0.0229 AU
Epoch 2023 Sept. 13.0 TT = JDT 2460200.5                MPC                     
M 319.81307              (2000.0)            P               Q                  
n   0.37632082     Peri.   11.13754     -0.16967830     -0.98483317             
a   1.9000450      Node    88.63895     +0.90137042     -0.16995286             
e   0.4702850      Incl.    2.07710     +0.39842270     -0.03492356             
P   2.62           H   26.02          G   0.15           U   8                  
Residuals in seconds of arc
231205 F52  0.1+  0.0     231206 858  0.0   0.2+    231206 I52  0.3+  0.2-
231205 F52  0.1+  0.1+    231206 858  0.2-  0.0     231206 M49  0.5-  0.2-
231205 F52  0.1-  0.1+    231206 858  0.0   0.1-    231206 M49  0.0   0.0
231205 F52  0.2-  0.0     231206 I52  0.3-  0.6+    231206 M49  0.3+  0.2+
231205 F51  0.1-  0.1-    231206 I52  0.2+  0.3-
231205 F51  0.1+  0.0     231206 I52  0.1-  0.0

Ephemeris:
2023 XV2                 a,e,i = 1.90, 0.47, 2                   q = 1.0065
Date    TT    R. A. (2000) Decl.     Delta      r    Elong.  Phase     V
2023 11 06    03 09 27.4 +07 55 23   0.1838  1.1728   169.7     8.7    23.3
...
2023 11 21    03 35 32.9 +08 24 18   0.1113  1.0973   168.5    10.3    22.1
...
2023 11 29    04 07 51.9 +09 56 39   0.07949 1.0645   168.4    10.7    21.3
...
2023 12 05    04 54 11.0 +12 15 35   0.05944 1.0441   169.7     9.8    20.6
2023 12 06    05 05 00.7 +12 45 46   0.05655 1.0411   169.5     9.9    20.5
2023 12 07    05 16 59.8 +13 17 38   0.05383 1.0382   169.0    10.4    20.4
...
2023 12 13    06 57 11.3 +16 24 46   0.04230 1.0233   155.8    23.2    20.3
...
2023 12 21    09 43 55.4 +15 24 52   0.04495 1.0105   125.4    52.5    21.2
...
2024 01 05    12 04 08.2 +08 52 20   0.08343 1.0098   106.2    69.2    23.1

A. U. Tomatic                (C) Copyright 2023 MPC           M.P.E.C. 2023-X118





More information about the Iaude mailing list